This demonstration page uses our WeatherBlox Daily Observations layout. Learn more.

Left ArrowRight Arrow

44.89941, -97.11507

Hourly Observations for June 26, 2021

Temp ( °F °C ) Dew Point ( °F °C ) Humidity (%) Winds ( mph kmh ) Pressure ( in mb ) Visibility ( mi km ) Precip ( " mm )
12:53 am 00:53 Mostly Cloudy 68 20 56 13.3 65 65 N 5 7 29.81 1010 10 16 0.00 0.00
1:53 am 01:53 Cloudy 68 20 57 13.9 68 68 Calm 29.80 1009 10 16 0.00 0.00
2:53 am 02:53 Mostly Cloudy 67 19.4 58 14.4 73 73 N 5 7 29.79 1009 10 16 0.00 0.00
3:53 am 03:53 Mostly Cloudy 66 18.9 58 14.4 75 75 N 3 6 29.78 1008 10 16 0.00 0.00
4:53 am 04:53 Partly Cloudy 65 18.3 59 15 81 81 N 3 6 29.77 1008 10 16 0.00 0.00
5:53 am 05:53 Mostly Cloudy 65 18.3 59 15 81 81 NNE 9 15 29.78 1008 10 16 0.00 0.00
6:53 am 06:53 Cloudy 64 17.8 58 14.4 81 81 NNE 9 15 29.79 1009 10 16 0.00 0.00
7:53 am 07:53 Cloudy 65 18.3 58 14.4 78 78 NNE 9 15 29.80 1009 10 16 0.00 0.00
8:53 am 08:53 Cloudy 65 18.3 59 15 81 81 N 12 19 29.83 1010 10 16 0.00 0.00
9:53 am 09:53 Cloudy with Light Rain 62 16.7 60 15.6 93 93 NNE 13 20 29.83 1010 5 8 0.03 0.76
10:53 am 10:53 Cloudy with Light Rain 63 17.2 61 16.1 93 93 NNE 10 17 29.83 1010 7 11 0.03 0.76
11:53 am 11:53 Cloudy with Light Rain 64 17.8 62 16.7 93 93 NNE 8 13 29.85 1011 6 10 0.04 1.02
12:53 pm 12:53 Cloudy with Light Rain 64 17.8 61 16.1 90 90 NNE 7 11 29.85 1011 10 16 0.06 1.52
1:53 pm 13:53 Cloudy 67 19.4 63 17.2 87 87 N 8 13 29.85 1011 10 16 0.00 0.00
2:53 pm 14:53 Sunny 69 20.6 62 16.7 78 78 N 9 15 29.84 1010 10 16 0.00 0.00
3:24 pm 15:24 Mostly Cloudy 71 21.7 62 16.7 73 73 NNE 12 19 29.79 1009 10 16 0.00 0.00
4:00 pm 16:00 Partly Cloudy 72 22.2 60 15.6 66 66 N 9 15 29.80 1009 10 16 0.00 0.00
4:25 pm 16:25 Mostly Cloudy 72 22.2 60 15.6 66 66 N 9 15 29.80 1009 10 16 0.00 0.00
4:53 pm 16:53 Partly Cloudy 73 22.8 59 15 62 62 NNW 7 11 29.84 1011 10 16 0.00 0.00
5:53 pm 17:53 Mostly Sunny 74 23.3 59 15 60 60 N 8 13 29.83 1010 10 16 0.00 0.00
6:53 pm 18:53 Sunny 74 23.3 58 14.4 57 57 VRB 6 9 29.83 1010 10 16 0.00 0.00
7:53 pm 19:53 Partly Cloudy 70 21.1 59 15 68 68 N 6 9 29.85 1011 10 16 0.00 0.00
8:53 pm 20:53 Sunny 67 19.4 61 16.1 81 81 NNE 3 6 29.86 1011 10 16 0.00 0.00
9:53 pm 21:53 Mostly Clear 66 18.9 61 16.1 84 84 Calm 29.88 1012 10 16 0.00 0.00
10:53 pm 22:53 Mostly Clear 64 17.8 61 16.1 90 90 N 3 6 29.89 1012 10 16 0.00 0.00
11:53 pm 23:53 Mostly Cloudy 64 17.8 61 16.1 90 90 Calm 29.90 1013 10 16 0.00 0.00

Powered by AerisWeather